User: anonymous   Login
Location: Unspecified
(0.0000°N, 0.0000°E)
Time: 21:59:25
(UTC+01:00)
Language:

Timation 2 Rocket - Orbit

View from above orbital plane
View from above orbital plane
View from above satellite
View from above satellite

Ground track
Ground track

The orbit data is extracted from the following two-line orbital elements,

1 04159U 69082AB  15026.55646724 -.00000033  00000-0  17520-4 0  8048
2 04159 069.9635 152.7783 0112523 095.7861 265.6073 13.72277825268360
Epoch (UTC): 26 January 2015 13:21:18
Eccentricity: 0.0112523
inclination: 69.9635°
perigee height: 908 km
apogee height: 1074 km
right ascension of ascending node: 152.7783°
argument of perigee: 95.7861°
revolutions per day: 13.72277825
mean anomaly at epoch: 265.6073°
orbit number at epoch: 26836

The dashed part of the orbit path shows where the satellite is in the earth's shadow,  

DLR